#timestamp,LO_Frequency,Hit 
1503334815.7,286047003.8,N
1503334835.6,286047006.0,N
1503334855.4,286047005.5,N
1503334875.2,286047005.8,N
1503334895.1,286047003.5,N
1503334896.0,286047003.5,N
1503334915.8,286047004.4,N
1503334935.6,286047004.2,N
1503334955.5,286047004.3,N
1503334975.3,286047003.7,N
1503334995.1,286047002.9,N
1503335015.8,286047001.2,N
1503335035.7,286047000.4,N
1503335055.5,286046999.9,N
1503335075.3,286047001.0,N
1503335095.2,286046999.6,N
1503335115.9,286046999.4,N
1503335135.7,286047002.4,N
1503335155.6,286047001.8,N
1503335175.4,286047002.4,N
1503335195.2,286047001.6,N
1503335215.1,286047001.7,N
1503335216.0,286047001.7,N
1503335235.8,286047005.5,N
1503335255.6,286047004.1,N
1503335275.5,286047003.8,N
1503335295.3,286046999.8,N
1503335315.1,286047001.2,N
1503335335.9,286047001.7,N
1503335355.7,286047000.4,N
1503335375.5,286046999.7,N
1503335395.3,286047000.0,N
1503335415.2,286047002.2,N
1503335435.0,286047001.3,N
1503335435.9,286047001.3,N
1503335455.7,286047002.9,N
1503335475.6,286047002.1,N
1503335495.4,286047000.8,N
1503335515.2,286047001.7,N
1503335535.1,286047005.5,P
1503335536.0,286047005.5,N
1503335555.8,286047005.9,P
1503335575.6,286047004.6,N
1503335595.5,286047007.4,P
1503335615.3,286046999.2,N
1503335635.1,286046998.1,N
1503335655.9,286046998.2,N
1503335675.7,286047000.8,N
1503335695.5,286047002.3,N
1503335715.4,286047000.1,N
1503335735.2,286047000.3,N
1503335755.0,286047002.0,N
1503335755.9,286047002.0,N
1503335775.8,286046998.3,N
1503335795.6,286046999.0,N
1503335815.4,286046997.3,N
1503335835.3,286046997.1,N
1503335855.1,286046999.0,N
1503335856.0,286046999.0,N
1503335875.8,286046998.0,N
1503335895.7,286046997.0,N
1503335915.5,286046998.4,N
1503335935.3,286047000.8,N
1503335955.1,286046999.8,N
1503335975.9,286047001.4,N
1503335995.7,286047001.9,N
1503336015.5,286047001.3,N
1503336035.4,286047004.3,N
1503336055.2,286047004.3,N
1503336075.0,286047001.8,N
1503336075.9,286047001.8,N
1503336095.8,286046999.7,N
1503336115.6,286047002.5,N
1503336135.4,286047001.5,N
1503336155.3,286047001.5,N
1503336175.1,286047002.4,N
1503336176.0,286047002.4,N
1503336195.8,286047000.6,N
1503336215.7,286046998.2,N
1503336235.5,286047002.3,N
1503336255.3,286047004.0,N
1503336275.1,286047004.3,N
1503336295.9,286047002.4,N
1503336315.7,286047001.7,N
1503336335.5,286047003.1,N
1503336355.4,286047003.0,N
1503336375.2,286047004.3,N
1503336395.0,286047004.1,N
1503336395.9,286047004.1,N
1503336415.8,286047001.7,N
1503336435.6,286047000.3,N
1503336455.4,286047002.5,N
1503336475.3,286046999.7,N
1503336495.1,286047002.2,N
1503336496.0,286047002.2,N
1503336515.8,286047004.3,N
1503336535.7,286047005.6,P
1503336555.5,286047000.0,N
1503336575.3,286047000.3,N
1503336595.2,286046998.6,N
1503336615.9,286047000.3,N
1503336635.7,286047000.1,N
1503336655.6,286046999.8,N
1503336675.4,286047002.6,N
1503336695.2,286047001.8,N
1503336715.0,286047000.1,N
1503336716.0,286047000.1,N
1503336735.8,286047003.1,N
1503336755.6,286047005.4,N
1503336775.4,286047004.7,N
1503336795.3,286047005.3,N
1503336815.1,286047004.2,N
1503336835.8,286047001.2,N
1503336855.7,286047002.2,N
1503336875.5,286047001.4,N
1503336895.3,286046999.8,N
1503336915.2,286046999.8,N
1503336935.9,286047005.4,N
1503336955.7,286047007.5,P
1503336975.6,286047001.5,N
1503336995.4,286047002.2,N
1503337015.2,286047004.4,N
1503337035.1,286046999.7,N
1503337036.0,286046999.7,N
1503337055.8,286047002.2,N
1503337075.6,286047002.1,N
1503337095.5,286046998.4,N
1503337115.3,286047000.2,N
1503337135.1,286046998.7,N
1503337155.9,286046999.8,N
1503337175.7,286047001.3,N
1503337195.5,286047001.9,N
1503337215.3,286047003.7,N
1503337235.2,286047003.7,N
1503337255.0,286046999.8,N
1503337255.9,286046999.8,N
1503337275.7,286047002.0,N
1503337295.6,286047002.9,N
1503337315.4,286047007.1,P
1503337335.3,286047004.3,N
1503337355.1,286047001.9,N
1503337356.0,286047001.9,N
1503337375.8,286047001.3,N
1503337395.6,286047001.8,N
1503337415.5,286047004.1,N
1503337435.3,286047003.4,N
1503337455.2,286047005.8,P
1503337475.9,286047000.0,N
1503337495.7,286047001.6,N
1503337515.5,286047002.7,N
1503337535.4,286047002.5,N
1503337555.2,286047000.3,N
1503337575.0,286046998.4,N
1503337575.9,286046998.4,N
1503337595.8,286046999.7,N
1503337615.6,286047004.2,N
1503337635.4,286047001.5,N
1503337655.3,286047004.1,N
1503337675.1,286047004.4,N
1503337676.0,286047004.4,N
1503337695.8,286047001.4,N
1503337715.7,286047002.3,N
1503337735.5,286046999.8,N
1503337755.3,286047001.7,N
1503337775.1,286047003.6,N
1503337795.9,286047001.3,N
1503337815.7,286047004.2,N
1503337835.5,286047001.6,N
1503337855.4,286047004.2,N
1503337875.2,286046999.7,N
1503337895.0,286047001.0,N
1503337895.9,286047001.0,N
1503337915.8,286046998.2,N
1503337935.6,286046998.1,N
1503337955.4,286046998.7,N
1503337975.3,286047002.5,N
1503337995.1,286046999.9,N
1503337996.0,286046999.9,N
1503338015.8,286046999.6,N
1503338035.7,286046999.7,N
1503338055.5,286047004.3,N
1503338075.3,286047003.4,N
1503338095.1,286047001.7,N
1503338115.9,286047004.4,N
1503338135.7,286047003.8,N
1503338155.5,286047005.4,N
1503338175.4,286047004.6,N
1503338195.2,286047005.4,N
1503338215.0,286047006.6,N
1503338215.9,286047006.6,N
1503338235.8,286047005.3,N
1503338255.6,286047004.5,N
1503338275.4,286047003.1,N
1503338295.3,286047003.0,N
1503338315.1,286047007.3,N
1503338316.0,286047007.3,N
1503338335.8,286047006.6,N
1503338355.7,286047005.0,N
1503338375.5,286047007.6,N
1503338395.3,286047003.9,N
